Weather History for LKPD - October, 2012

Change the Weather History Date:

Saturday, October 6, 2012

  Actual Average Record
Temperature  
Mean Temperature 66 °F -  
Max Temperature 75 °F - - ()
Min Temperature 57 °F - - ()
Cooling Degree Days 1    
Growing Degree Days 16 (Base 50)    
Moisture  
Dew Point 51 °F    
Average Humidity 60    
Maximum Humidity 82    
Minimum Humidity 40    
Precipitation  
Precipitation 0.00 in - - ()
Sea Level Pressure  
Sea Level Pressure 29.93 in    
Wind  
Wind Speed 9 mph ()    
Max Wind Speed 23 mph    
Max Gust Speed 32 mph    
Visibility 6.2 miles    
Events      
T = Trace of Precipitation, MM = Missing Value Source: Averaged Metar Reports

Daily Weather History Graph

Daily Weather History Graph

Search for Another Location

Airport or City:

Trip Planner

Search our weather history database for the weather conditions in past years. The results will help you decide how hot, cold, wet, or windy it might be!

Date:

Astronomy

Oct. 06, 2012 Rise Set
Actual Time 7:05 AM CEST 6:24 PM CEST
Civil Twilight 6:32 AM CEST 6:56 PM CEST
Nautical Twilight 5:55 AM CEST 7:33 PM CEST
Astronomical Twilight 5:17 AM CEST 8:11 PM CEST
Moon 9:56 PM CEST (10/6) 1:14 PM CEST (10/6)
Length of Visible Light 12h 23m
Length of Day
11h 18m
Waning Gibbous, 68% of the Moon is Illuminated
Oct 6
Waning Gibbous
Oct 8
Last Quarter
Oct 15
New
Oct 22
First Quarter
Oct 29
Full

Hourly Weather History & Observations

Time (CEST) Temp. Dew Point Humidity Pressure Visibility Wind Dir Wind Speed Gust Speed Precip Events Conditions
12:00 AM 60.8 °F 51.8 °F 72% 29.98 in - WSW 10.4 mph - N/A   Clear
1:00 AM 60.8 °F 51.8 °F 72% 29.98 in - SW 10.4 mph - N/A   Clear
2:00 AM 60.8 °F 51.8 °F 72% 29.98 in - WSW 6.9 mph - N/A   Clear
4:00 AM 57.2 °F 51.8 °F 82% 29.98 in - WSW 2.3 mph - N/A   Clear
6:00 AM 59.0 °F 51.8 °F 77% 29.98 in - SW 10.4 mph - N/A   Clear
7:00 AM 59.0 °F 51.8 °F 77% 29.98 in - WSW 8.1 mph - N/A   Clear
8:00 AM 59.0 °F 51.8 °F 77% 29.98 in - SW 10.4 mph - N/A   Clear
9:00 AM 62.6 °F 51.8 °F 68% 29.98 in - SSW 6.9 mph - N/A   Clear
10:00 AM 66.2 °F 51.8 °F 60% 29.98 in - SSW 10.4 mph - N/A   Clear
11:00 AM 68.0 °F 51.8 °F 56% 29.98 in - SW 11.5 mph - N/A   Clear
12:00 PM 69.8 °F 51.8 °F 53% 29.95 in - SW 11.5 mph - N/A   Clear
1:00 PM 71.6 °F 51.8 °F 50% 29.92 in - SW 16.1 mph 26.5 mph N/A   Clear
2:00 PM 75.2 °F 50.0 °F 41% 29.89 in - SW 13.8 mph - N/A   Clear
3:00 PM 73.4 °F 50.0 °F 44% 29.86 in - SW 15.0 mph - N/A   Clear
5:00 PM 71.6 °F 48.2 °F 43% 29.83 in - SW 12.7 mph - N/A   Clear
6:00 PM 69.8 °F 48.2 °F 46% 29.83 in - SW 11.5 mph - N/A   Clear
7:00 PM 69.8 °F 50.0 °F 49% 29.83 in - WSW 12.7 mph - N/A   Clear
8:00 PM 66.2 °F 51.8 °F 60% 29.86 in - WSW 15.0 mph 27.6 mph N/A   Clear
9:00 PM 69.8 °F 44.6 °F 40% 29.89 in - WNW 16.1 mph 28.8 mph N/A   Clear
10:00 PM 66.2 °F 48.2 °F 52% 29.89 in - West 23.0 mph 32.2 mph N/A   Clear
11:00 PM 62.6 °F 50.0 °F 63% 29.92 in 6.2 mi NW 10.4 mph - N/A   Overcast